Topeka, KS

11:55 AM CDT on July 25, 2016 (GMT -0500)
Forbes

Weather History for KFOE - March, 2013

Change the Weather History Date:

Thursday, March 14, 2013

  Actual Average Record
Temperature  
Mean Temperature 52 °F -  
Max Temperature 73 °F 57 °F 84 °F (2012)
Min Temperature 33 °F 30 °F 5 °F (1975)
Degree Days  
Heating Degree Days 12    
Growing Degree Days 2 (Base 50)    
Moisture  
Dew Point 32 °F    
Average Humidity 50    
Maximum Humidity 70    
Minimum Humidity 28    
Precipitation  
Precipitation 0.00 in - - ()
Sea Level Pressure  
Sea Level Pressure 30.14 in    
Wind  
Wind Speed 8 mph (SW)    
Max Wind Speed 14 mph    
Max Gust Speed -    
Visibility 10 miles    
Events      
Averages and records for this station are not official NWS values.
T = Trace of Precipitation, MM = Missing Value Source: NWS Daily Summary

Daily Weather History Graph

Daily Weather History Graph

Search for Another Location

Airport or City:

Trip Planner

Search our weather history database for the weather conditions in past years. The results will help you decide how hot, cold, wet, or windy it might be!

Date:

Astronomy

Mar. 14, 2013 Rise Set
Actual Time 7:35 AM CDT 7:28 PM CDT
Civil Twilight 7:08 AM CDT 7:55 PM CDT
Nautical Twilight 6:37 AM CDT 8:26 PM CDT
Astronomical Twilight 6:06 AM CDT 8:57 PM CDT
Moon 8:51 AM CDT (3/14) 10:44 PM CDT (3/14)
Length of Visible Light 12h 47m
Length of Day
11h 53m
Waxing Crescent, 9% of the Moon is Illuminated
Mar 14
Waxing Crescent
Mar 19
First Quarter
Mar 27
Full
Apr 2
Last Quarter
Apr 10
New

Hourly Weather History & Observations

Time (CDT) Temp. Windchill Dew Point Humidity Pressure Visibility Wind Dir Wind Speed Gust Speed Precip Events Conditions
12:53 AM 33.1 °F 26.1 °F 24.1 °F 70% 30.29 in 10.0 mi SE 8.1 mph - N/A   Clear
1:53 AM 34.0 °F 27.2 °F 25.0 °F 70% 30.27 in 10.0 mi SE 8.1 mph - N/A   Clear
2:53 AM 34.0 °F 27.2 °F 25.0 °F 70% 30.25 in 10.0 mi SSE 8.1 mph - N/A   Clear
3:53 AM 35.1 °F 28.6 °F 24.1 °F 64% 30.22 in 10.0 mi SSE 8.1 mph - N/A   Clear
4:53 AM 35.1 °F 27.4 °F 24.1 °F 64% 30.19 in 10.0 mi South 10.4 mph - N/A   Clear
5:53 AM 36.0 °F 27.5 °F 24.1 °F 62% 30.17 in 10.0 mi South 12.7 mph - N/A   Clear
6:53 AM 37.0 °F 31.0 °F 25.0 °F 62% 30.16 in 10.0 mi South 8.1 mph - N/A   Partly Cloudy
7:53 AM 37.9 °F 33.5 °F 26.1 °F 62% 30.15 in 10.0 mi South 5.8 mph - N/A   Scattered Clouds
8:53 AM 41.0 °F 34.7 °F 28.0 °F 60% 30.14 in 10.0 mi SSW 10.4 mph - N/A   Scattered Clouds
9:53 AM 50.0 °F - 33.1 °F 52% 30.13 in 10.0 mi SW 13.8 mph - N/A   Clear
10:53 AM 55.0 °F - 36.0 °F 49% 30.12 in 10.0 mi WSW 13.8 mph - N/A   Clear
11:53 AM 60.1 °F - 37.0 °F 42% 30.11 in 10.0 mi WSW 13.8 mph - N/A   Clear
12:53 PM 64.9 °F - 37.0 °F 36% 30.12 in 10.0 mi West 12.7 mph - N/A   Clear
1:53 PM 66.9 °F - 37.0 °F 33% 30.10 in 10.0 mi NW 9.2 mph - N/A   Clear
2:53 PM 69.1 °F - 37.9 °F 32% 30.10 in 10.0 mi NW 9.2 mph - N/A   Clear
3:53 PM 71.1 °F - 37.0 °F 29% 30.09 in 10.0 mi NNW 5.8 mph - N/A   Clear
4:53 PM 71.1 °F - 37.9 °F 30% 30.08 in 10.0 mi WNW 3.5 mph - N/A   Clear
5:53 PM 72.0 °F - 37.0 °F 28% 30.05 in 10.0 mi West 3.5 mph - N/A   Clear
6:53 PM 70.0 °F - 37.9 °F 31% 30.07 in 10.0 mi Calm Calm - N/A   Clear
7:53 PM 63.0 °F - 36.0 °F 37% 30.09 in 10.0 mi Calm Calm - N/A   Clear
8:53 PM 57.9 °F - 33.1 °F 39% 30.09 in 10.0 mi Calm Calm - N/A   Clear
9:53 PM 53.1 °F - 35.1 °F 50% 30.11 in 10.0 mi Calm Calm - N/A   Clear
10:53 PM 48.9 °F - 34.0 °F 56% 30.11 in 10.0 mi Calm Calm - N/A   Clear
11:53 PM 45.0 °F - 33.1 °F 63% 30.10 in 10.0 mi Calm Calm - N/A   Clear